Weather History for EGUL - October, 2012

Change the Weather History Date:

Monday, October 22, 2012

  Actual Average (EGSC) Record (EGSC)
Temperature  
Mean Temperature 55 °F -  
Max Temperature 58 °F 56 °F 62 °F (1996)
Min Temperature 53 °F 45 °F 32 °F (1997)
Degree Days  
Heating Degree Days 10    
Growing Degree Days 5 (Base 50)    
Moisture  
Dew Point 55 °F    
Average Humidity 97    
Maximum Humidity 100    
Minimum Humidity 94    
Precipitation  
Precipitation 0.00 in - - ()
Sea Level Pressure  
Sea Level Pressure 30.15 in    
Wind  
Wind Speed 4 mph ()    
Max Wind Speed 9 mph    
Max Gust Speed -    
Visibility 1.8 miles    
Events Fog    
Averages and records for this station are not official NWS values.
T = Trace of Precipitation, MM = Missing Value Source: Averaged Metar Reports

Daily Weather History Graph

Daily Weather History Graph

Search for Another Location

Airport or City:

Trip Planner

Search our weather history database for the weather conditions in past years. The results will help you decide how hot, cold, wet, or windy it might be!

Date:

Astronomy

Oct. 22, 2012 Rise Set
Actual Time 7:36 AM BST 5:47 PM BST
Civil Twilight 7:01 AM BST 6:22 PM BST
Nautical Twilight 6:21 AM BST 7:01 PM BST
Astronomical Twilight 5:42 AM BST 7:41 PM BST
Moon 2:35 PM BST (10/22) No Moon Set
Length of Visible Light 11h 21m
Length of Day
10h 11m
First Quarter, 53% of the Moon is Illuminated
Oct 22
First Quarter
Oct 29
Full
Nov 7
Last Quarter
Nov 13
New
Nov 20
First Quarter

Hourly Weather History & Observations

Time (BST) Temp. Dew Point Humidity Pressure Visibility Wind Dir Wind Speed Gust Speed Precip Events Conditions
12:58 AM 53.8 °F 52.9 °F 97% 30.08 in 5.6 mi NE 9.2 mph - N/A   Overcast
1:12 AM 53.6 °F 53.6 °F 100% 30.07 in 5.6 mi NE 8.1 mph - N/A   Light Drizzle
1:25 AM 53.6 °F 53.6 °F 100% 30.07 in 5.6 mi ENE 5.8 mph - N/A   Overcast
1:31 AM 53.6 °F 53.6 °F 100% 30.06 in 6.2 mi NE 6.9 mph - N/A   Light Drizzle
1:43 AM 53.6 °F 53.6 °F 100% 30.06 in 6.2 mi NE 6.9 mph - N/A   Overcast
1:58 AM 54.1 °F 53.2 °F 97% 30.07 in 6.2 mi NE 5.8 mph - 0.00 in   Overcast
2:14 AM 53.6 °F 53.6 °F 100% 30.06 in 5.6 mi NE 5.8 mph - N/A   Overcast
2:58 AM 54.5 °F 53.8 °F 97% 30.08 in 5.0 mi ENE 4.6 mph - N/A   Overcast
3:41 AM 55.4 °F 53.6 °F 94% 30.06 in 2.5 mi ENE 4.6 mph - N/A   Overcast
3:55 AM 55.4 °F 53.6 °F 94% 30.06 in - NE 4.6 mph - N/A   Overcast
3:56 AM 55.4 °F 53.6 °F 94% 30.06 in - NE 4.6 mph - N/A   Overcast
3:58 AM 54.5 °F 54.0 °F 98% 30.07 in - NE 3.5 mph - N/A   Overcast
4:09 AM 55.4 °F 53.6 °F 94% 30.07 in 1.7 mi East 3.5 mph - N/A   Overcast
4:18 AM 55.4 °F 53.6 °F 94% 30.07 in 1.5 mi East 2.3 mph - N/A   Overcast
4:20 AM 55.4 °F 53.6 °F 94% 30.07 in 1.5 mi ENE 3.5 mph - N/A   Overcast
4:28 AM 55.4 °F 53.6 °F 94% 30.06 in 1.2 mi NE 4.6 mph - N/A   Overcast
4:30 AM 55.4 °F 53.6 °F 94% 30.06 in 1.5 mi NE 4.6 mph - N/A   Overcast
4:31 AM 55.4 °F 53.6 °F 94% 30.06 in 1.2 mi NE 4.6 mph - N/A   Overcast
4:43 AM 55.4 °F 53.6 °F 94% 30.06 in 1.2 mi NNE 4.6 mph - N/A   Overcast
4:47 AM 55.4 °F 53.6 °F 94% 30.06 in 1.2 mi NE 4.6 mph - N/A   Overcast
4:48 AM 55.4 °F 53.6 °F 94% 30.06 in 1.5 mi NE 3.5 mph - N/A   Overcast
4:58 AM 54.7 °F 54.1 °F 98% 30.08 in 1.5 mi NE 3.5 mph - N/A   Overcast
4:59 AM 55.4 °F 53.6 °F 94% 30.07 in 1.2 mi NE 3.5 mph - N/A   Overcast
5:04 AM 55.4 °F 53.6 °F 94% 30.07 in 1.2 mi NE 2.3 mph - N/A   Overcast
5:07 AM 55.4 °F 53.6 °F 94% 30.07 in 1.2 mi ENE 2.3 mph - N/A   Overcast
5:24 AM 55.4 °F 53.6 °F 94% 30.07 in 1.5 mi NE 2.3 mph - N/A   Overcast
5:26 AM 55.4 °F 53.6 °F 94% 30.07 in 1.5 mi NE 2.3 mph - N/A   Overcast
5:27 AM 55.4 °F 53.6 °F 94% 30.07 in 1.7 mi NE 2.3 mph - N/A   Overcast
5:29 AM 55.4 °F 53.6 °F 94% 30.07 in - NNE 2.3 mph - N/A   Overcast
5:31 AM 55.4 °F 53.6 °F 94% 30.07 in - NNE 2.3 mph - N/A   Overcast
5:32 AM 55.4 °F 53.6 °F 94% 30.07 in 2.5 mi NNE 2.3 mph - N/A   Overcast
5:39 AM 55.4 °F 53.6 °F 94% 30.07 in - NNE 2.3 mph - N/A   Overcast
5:40 AM 55.4 °F 53.6 °F 94% 30.07 in - NNE 2.3 mph - N/A   Overcast
5:41 AM 55.4 °F 53.6 °F 94% 30.07 in 1.7 mi NNE 2.3 mph - N/A   Overcast
5:43 AM 55.4 °F 53.6 °F 94% 30.07 in 1.5 mi North 2.3 mph - N/A   Overcast
5:44 AM 55.4 °F 53.6 °F 94% 30.07 in 1.5 mi North 2.3 mph - N/A   Overcast
5:46 AM 55.4 °F 53.6 °F 94% 30.07 in 1.2 mi North 2.3 mph - N/A   Overcast
5:58 AM 54.7 °F 54.1 °F 98% 30.08 in 1.2 mi NE 2.3 mph - N/A   Overcast
6:01 AM 55.4 °F 53.6 °F 94% 30.07 in 1.5 mi NE 3.5 mph - N/A   Overcast
6:05 AM 55.4 °F 53.6 °F 94% 30.07 in 1.5 mi NE 3.5 mph - N/A   Overcast
6:07 AM 55.4 °F 53.6 °F 94% 30.07 in 1.7 mi NNE 3.5 mph - N/A   Overcast
6:15 AM 55.4 °F 53.6 °F 94% 30.07 in 1.5 mi NNE 2.3 mph - N/A   Overcast
6:17 AM 55.4 °F 53.6 °F 94% 30.07 in 1.5 mi NNE 2.3 mph - N/A   Overcast
6:19 AM 55.4 °F 53.6 °F 94% 30.08 in 1.2 mi NE 2.3 mph - N/A   Overcast
6:38 AM 55.4 °F 53.6 °F 94% 30.07 in 1.2 mi NNE 4.6 mph - N/A   Overcast
6:39 AM 55.4 °F 53.6 °F 94% 30.07 in 1.5 mi NNE 4.6 mph - N/A   Overcast
6:42 AM 55.4 °F 53.6 °F 94% 30.07 in 1.5 mi NNE 3.5 mph - N/A   Overcast
6:46 AM 55.4 °F 53.6 °F 94% 30.07 in 1.5 mi NNE 4.6 mph - N/A   Overcast
6:48 AM 55.4 °F 53.6 °F 94% 30.07 in 1.5 mi NNE 4.6 mph - N/A   Overcast
6:58 AM 55.4 °F 55.4 °F 100% 30.09 in 1.5 mi NE 2.3 mph - N/A   Overcast
7:07 AM 55.4 °F 55.4 °F 100% 30.09 in 1.2 mi ENE 2.3 mph - N/A   Overcast
7:12 AM 55.4 °F 55.4 °F 100% 30.09 in 1.5 mi East 2.3 mph - N/A   Overcast
7:20 AM 55.4 °F 55.4 °F 100% 30.09 in 1.5 mi ENE 2.3 mph - N/A   Overcast
7:21 AM 55.4 °F 55.4 °F 100% 30.09 in 1.7 mi NE 3.5 mph - N/A   Overcast
7:31 AM 55.4 °F 55.4 °F 100% 30.08 in 1.5 mi NNE 4.6 mph - N/A   Overcast
7:36 AM 55.4 °F 55.4 °F 100% 30.08 in 1.2 mi NNE 4.6 mph - N/A   Overcast
7:40 AM 55.4 °F 55.4 °F 100% 30.09 in 1.5 mi NNE 3.5 mph - N/A   Overcast
7:45 AM 55.4 °F 55.4 °F 100% 30.09 in 1.7 mi NE 3.5 mph - N/A   Overcast
7:50 AM 55.4 °F 55.4 °F 100% 30.09 in - NNE 4.6 mph - N/A   Overcast
7:58 AM 55.0 °F 54.7 °F 99% 30.11 in - Variable 2.3 mph - N/A   Overcast
8:03 AM 55.4 °F 55.4 °F 100% 30.10 in 1.7 mi North 3.5 mph - N/A   Overcast
8:09 AM 55.4 °F 55.4 °F 100% 30.10 in 1.5 mi NNE 4.6 mph - N/A   Overcast
8:27 AM 55.4 °F 55.4 °F 100% 30.11 in 1.2 mi NE 4.6 mph - N/A   Overcast
8:35 AM 55.4 °F 55.4 °F 100% 30.11 in 1.5 mi NE 4.6 mph - N/A   Overcast
8:39 AM 55.4 °F 55.4 °F 100% 30.11 in 1.7 mi NE 3.5 mph - N/A   Overcast
8:43 AM 55.4 °F 55.4 °F 100% 30.11 in - NE 4.6 mph - N/A   Overcast
8:52 AM 55.4 °F 55.4 °F 100% 30.12 in 2.5 mi NE 3.5 mph - N/A   Overcast
9:23 AM 55.4 °F 55.4 °F 100% 30.12 in 3.1 mi ENE 4.6 mph - N/A   Overcast
9:40 AM 55.4 °F 55.4 °F 100% 30.12 in 3.7 mi East 3.5 mph - N/A   Overcast
9:58 AM 56.1 °F 55.6 °F 98% 30.14 in 3.7 mi East 5.8 mph - N/A   Overcast
10:58 AM 56.5 °F 55.9 °F 98% 30.14 in 3.7 mi East 6.9 mph - N/A   Overcast
3:58 PM 57.9 °F 56.8 °F 96% 30.16 in 3.1 mi NE 5.8 mph - N/A   Overcast
4:45 PM 57.2 °F 57.2 °F 100% 30.15 in 2.5 mi ENE 4.6 mph - N/A   Overcast
4:53 PM 57.2 °F 57.2 °F 100% 30.15 in 2.5 mi NNE 4.6 mph - N/A   Overcast
4:58 PM 57.6 °F 56.5 °F 96% 30.17 in 2.5 mi ENE 4.6 mph - N/A   Overcast
5:05 PM 57.2 °F 57.2 °F 100% 30.16 in 2.5 mi NNE 3.5 mph - N/A   Overcast
5:08 PM 57.2 °F 57.2 °F 100% 30.16 in 2.5 mi NE 5.8 mph - N/A   Overcast
5:11 PM 57.2 °F 57.2 °F 100% 30.16 in - ENE 4.6 mph - N/A   Overcast
5:39 PM 57.2 °F 57.2 °F 100% 30.17 in 1.7 mi NE 3.5 mph - N/A   Overcast
5:45 PM 57.2 °F 57.2 °F 100% 30.17 in 1.5 mi NE 3.5 mph - N/A   Overcast
5:49 PM 57.2 °F 57.2 °F 100% 30.17 in 1.7 mi East 4.6 mph - N/A   Overcast
5:58 PM 57.2 °F 56.3 °F 97% 30.18 in 1.5 mi ENE 5.8 mph - N/A   Overcast
6:05 PM 57.2 °F 55.4 °F 94% 30.17 in 1.7 mi ENE 4.6 mph - N/A   Overcast
6:07 PM 57.2 °F 55.4 °F 94% 30.17 in 1.7 mi ENE 5.8 mph - N/A   Overcast
6:18 PM 57.2 °F 55.4 °F 94% 30.17 in 1.5 mi ENE 5.8 mph - N/A   Overcast
6:20 PM 57.2 °F 55.4 °F 94% 30.17 in 1.5 mi NE 4.6 mph - N/A   Overcast
6:22 PM 57.2 °F 55.4 °F 94% 30.17 in 1.2 mi NE 5.8 mph - N/A   Overcast
6:26 PM 57.2 °F 55.4 °F 94% 30.18 in 1.5 mi NE 5.8 mph - N/A   Overcast
6:33 PM 57.2 °F 55.4 °F 94% 30.18 in 1.2 mi ENE 5.8 mph - N/A   Overcast
6:46 PM 57.2 °F 55.4 °F 94% 30.18 in 1.5 mi ENE 5.8 mph - N/A   Overcast
6:49 PM 57.2 °F 55.4 °F 94% 30.18 in 1.2 mi NE 4.6 mph - N/A   Overcast
6:53 PM 57.2 °F 55.4 °F 94% 30.18 in 1.0 mi NE 3.5 mph - N/A   Mist
6:58 PM 56.7 °F 56.1 °F 98% 30.19 in 1.0 mi NE 3.5 mph - N/A   Mist
7:03 PM 57.2 °F 55.4 °F 94% 30.19 in 1.0 mi North 3.5 mph - N/A   Mist
7:09 PM 57.2 °F 55.4 °F 94% 30.19 in 0.7 mi NNE 4.6 mph - N/A   Mist
7:11 PM 57.2 °F 55.4 °F 94% 30.19 in 0.7 mi NNE 4.6 mph - N/A   Mist
7:37 PM 57.2 °F 55.4 °F 94% 30.19 in 0.5 mi NE 4.6 mph - N/A Fog Fog
7:41 PM 57.2 °F 55.4 °F 94% 30.19 in 0.5 mi NNE 4.6 mph - N/A Fog Fog
7:50 PM 55.4 °F 55.4 °F 100% 30.19 in 0.5 mi NNE 4.6 mph - N/A Fog Fog
7:53 PM 55.4 °F 55.4 °F 100% 30.19 in 0.7 mi NNE 4.6 mph - N/A   Mist
7:58 PM 56.1 °F 55.6 °F 98% 30.20 in 0.7 mi NNE 3.5 mph - N/A   Mist
8:09 PM 55.4 °F 55.4 °F 100% 30.19 in 0.7 mi NE 5.8 mph - N/A   Mist
8:10 PM 55.4 °F 55.4 °F 100% 30.19 in 1.0 mi NE 4.6 mph - N/A   Mist
8:14 PM 55.4 °F 55.4 °F 100% 30.19 in 1.2 mi NE 4.6 mph - N/A   Overcast
8:16 PM 55.4 °F 55.4 °F 100% 30.19 in 1.5 mi NE 5.8 mph - N/A   Overcast
8:17 PM 55.4 °F 55.4 °F 100% 30.19 in 1.5 mi NE 5.8 mph - N/A   Overcast
8:18 PM 55.4 °F 55.4 °F 100% 30.19 in 1.7 mi NE 5.8 mph - N/A   Overcast
8:20 PM 55.4 °F 55.4 °F 100% 30.19 in - NE 5.8 mph - N/A   Overcast
8:24 PM 55.4 °F 55.4 °F 100% 30.20 in - NE 4.6 mph - N/A   Overcast
8:25 PM 55.4 °F 55.4 °F 100% 30.20 in 2.5 mi NE 4.6 mph - N/A   Overcast
8:29 PM 55.4 °F 55.4 °F 100% 30.20 in - NNE 3.5 mph - N/A   Overcast
8:30 PM 55.4 °F 55.4 °F 100% 30.20 in - NNE 4.6 mph - N/A   Overcast
8:37 PM 55.4 °F 55.4 °F 100% 30.20 in 1.5 mi NNE 5.8 mph - N/A   Overcast
8:38 PM 55.4 °F 55.4 °F 100% 30.20 in 1.5 mi NNE 5.8 mph - N/A   Overcast
8:56 PM 55.4 °F 55.4 °F 100% 30.20 in 1.2 mi NE 3.5 mph - N/A   Overcast
8:58 PM 55.4 °F 55.4 °F 100% 30.21 in 1.2 mi NE 3.5 mph - N/A   Overcast
9:00 PM 55.4 °F 55.4 °F 100% 30.21 in 1.0 mi NE 3.5 mph - N/A   Mist
9:02 PM 55.4 °F 55.4 °F 100% 30.21 in 1.0 mi NNE 3.5 mph - N/A   Mist
9:13 PM 55.4 °F 55.4 °F 100% 30.21 in 1.2 mi NNE 5.8 mph - N/A   Overcast
9:21 PM 55.4 °F 55.4 °F 100% 30.21 in 1.0 mi NNE 5.8 mph - N/A   Mist
9:42 PM 55.4 °F 55.4 °F 100% 30.21 in 1.2 mi NE 6.9 mph - N/A   Overcast
9:46 PM 55.4 °F 55.4 °F 100% 30.21 in 1.5 mi NE 5.8 mph - N/A   Overcast
9:48 PM 55.4 °F 55.4 °F 100% 30.21 in 1.5 mi NE 6.9 mph - N/A   Overcast
9:49 PM 55.4 °F 55.4 °F 100% 30.21 in 1.7 mi NE 5.8 mph - N/A   Overcast
9:52 PM 55.4 °F 55.4 °F 100% 30.21 in - NE 6.9 mph - N/A   Overcast
9:58 PM 55.2 °F 55.0 °F 99% 30.22 in - NE 5.8 mph - N/A   Overcast
9:59 PM 55.4 °F 55.4 °F 100% 30.21 in 2.5 mi NE 5.8 mph - N/A   Overcast
10:03 PM 55.4 °F 55.4 °F 100% 30.21 in 3.1 mi NE 4.6 mph - N/A   Overcast
10:07 PM 55.4 °F 55.4 °F 100% 30.21 in 2.5 mi NNE 3.5 mph - N/A   Overcast
10:09 PM 55.4 °F 55.4 °F 100% 30.21 in - NNE 3.5 mph - N/A   Overcast
10:10 PM 55.4 °F 55.4 °F 100% 30.21 in - NE 4.6 mph - N/A   Overcast
10:11 PM 55.4 °F 55.4 °F 100% 30.21 in 1.7 mi NE 5.8 mph - N/A   Overcast
10:12 PM 55.4 °F 55.4 °F 100% 30.21 in 1.5 mi NNE 5.8 mph - N/A   Overcast
10:13 PM 55.4 °F 55.4 °F 100% 30.21 in 1.5 mi NNE 5.8 mph - N/A   Overcast
10:15 PM 55.4 °F 55.4 °F 100% 30.21 in 1.2 mi NNE 5.8 mph - N/A   Overcast
10:34 PM 55.4 °F 55.4 °F 100% 30.21 in 1.5 mi NE 5.8 mph - N/A   Overcast
10:37 PM 55.4 °F 55.4 °F 100% 30.21 in 1.2 mi NE 5.8 mph - N/A   Overcast
10:53 PM 55.4 °F 53.6 °F 94% 30.21 in 1.5 mi NNE 5.8 mph - N/A   Overcast
10:56 PM 55.4 °F 53.6 °F 94% 30.21 in 1.5 mi NNE 4.6 mph - N/A   Overcast
10:57 PM 55.4 °F 53.6 °F 94% 30.21 in 1.7 mi NNE 4.6 mph - N/A   Overcast
10:58 PM 55.4 °F 53.6 °F 94% 30.22 in 1.7 mi NE 4.6 mph - N/A   Overcast
10:59 PM 55.4 °F 53.6 °F 94% 30.21 in - NE 4.6 mph - N/A   Overcast
11:09 PM 55.4 °F 53.6 °F 94% 30.21 in 1.7 mi NNE 3.5 mph - N/A   Overcast
11:16 PM 55.4 °F 53.6 °F 94% 30.21 in 1.5 mi NNE 2.3 mph - N/A   Overcast
11:17 PM 55.4 °F 53.6 °F 94% 30.21 in 1.5 mi NNE 2.3 mph - N/A   Overcast
11:19 PM 55.4 °F 53.6 °F 94% 30.21 in 1.2 mi NNE 2.3 mph - N/A   Overcast
11:22 PM 55.4 °F 53.6 °F 94% 30.21 in 1.0 mi NNE 3.5 mph - N/A   Overcast
11:35 PM 53.6 °F 53.6 °F 100% 30.21 in 1.2 mi NE 6.9 mph - N/A   Overcast
11:37 PM 53.6 °F 53.6 °F 100% 30.22 in 1.5 mi NE 5.8 mph - N/A   Overcast
11:38 PM 53.6 °F 53.6 °F 100% 30.22 in 1.7 mi NE 4.6 mph - N/A   Overcast
11:41 PM 53.6 °F 53.6 °F 100% 30.22 in 2.5 mi NE 2.3 mph - N/A   Overcast
11:43 PM 53.6 °F 53.6 °F 100% 30.22 in 3.1 mi NE 3.5 mph - N/A   Overcast
11:46 PM 53.6 °F 53.6 °F 100% 30.22 in 2.5 mi NE 3.5 mph - N/A   Overcast
11:49 PM 53.6 °F 53.6 °F 100% 30.22 in - NNE 4.6 mph - N/A   Overcast
11:50 PM 53.6 °F 53.6 °F 100% 30.21 in 1.7 mi North 4.6 mph - N/A   Overcast
11:52 PM 53.6 °F 53.6 °F 100% 30.22 in 1.5 mi NNE 3.5 mph - N/A   Overcast
11:53 PM 53.6 °F 53.6 °F 100% 30.22 in 1.5 mi NNE 3.5 mph - N/A   Overcast
11:54 PM 53.6 °F 53.6 °F 100% 30.22 in 1.2 mi NNE 3.5 mph - N/A   Overcast
11:57 PM 53.6 °F 53.6 °F 100% 30.22 in 1.2 mi NNE 3.5 mph - N/A   Overcast
11:58 PM 53.6 °F 53.6 °F 100% 30.23 in 1.2 mi NNE 3.5 mph - N/A   Overcast
11:59 PM 53.6 °F 53.6 °F 100% 30.22 in 1.0 mi NE 3.5 mph - N/A   Mist